sat.trackr.live / text

‹ back to catalog

STARLINK-30289

NORAD 57653 · 2023-122X

PAYLOAD ACTIVE UNKNOWN

§ Identity

Operator
Country
US
Launch date
2023-08-17
Launch site
AFETR
Launch vehicle
Mass (kg)
RCS (m²)

Purposes: comms

External: N2YO · Heavens-Above · Gunter

§ Orbital elements

Epoch: 2026-09-18T18:51:17.532576Z

Period
94.27 min
Inclination
43.0040°
Eccentricity
0.0001357
Mean motion
15.27575882 rev/d
Perigee alt
482.1 km
Apogee alt
484.0 km
Semi-major
6,861.2 km
B*
1.5544e-5
RAAN
71.3458°
Arg perigee
261.9255°
Mean anomaly
98.1442°
Rev number
17,185

§ Raw data

STARLINK-302891 57653U 23122X   26261.78561959  .00000166  00000+0  15544-4 0  99982 57653  43.0040  71.3458 0001357 261.9255  98.1442 15.27575882171853

JSON: /api/v1/satellites/57653 · /tle

For live sub-satellite position, see the globe view (requires WebGL).

§ Visibility from observer

Set your observer location to see the next 7 days of passes ≥ 10°. The values pass through the URL so the page stays shareable.

No JS? Fill the form by hand. The geolocation button needs JavaScript.